Location: Hains Lake
(37.8540°N, 99.8578°W)
Time: 23:05:34
(UTC+00:00)

Courier 1B Rocket - Pass Details

Date: 03 December 2021
Orbit: 920 x 1202 km, 28.2° (Epoch: 18 January)

Event Time Altitude Azimuth Distance (km) Brightness Sun altitude
Exits shadow 11:15:38 12° 199° (SSW) 2,508 7.0 -27.6°
Drops below altitude 10° 11:17:40 10° 181° (S) 2,711 7.4 -27.2°
Sets 11:22:11 0° 154° (SSE) 3,722 8.5 -26.3°
